Weather History for Renton, WA

Change the Weather History Date:

Monday, February 18, 2013

  Actual Average Record
Temperature  
Mean Temperature 42 °F -  
Max Temperature 46 °F 49 °F 55 °F (1998)
Min Temperature 37 °F 35 °F 19 °F (2006)
Degree Days  
Heating Degree Days 24    
Moisture  
Dew Point 36 °F    
Average Humidity 81    
Maximum Humidity 93    
Minimum Humidity 63    
Precipitation  
Precipitation 0.02 in - - ()
Sea Level Pressure  
Sea Level Pressure 29.95 in    
Wind  
Wind Speed 2 mph (SE)    
Max Wind Speed 13 mph    
Max Gust Speed 21 mph    
Visibility 10 miles    
Events Rain    
Averages and records for this station are not official NWS values.
T = Trace of Precipitation, MM = Missing Value Source: NWS Daily Summary

Daily Weather History Graph

Daily Weather History Graph

Search for Another Location

Airport:

Trip Planner

Search our weather history database for the weather conditions in past years. The results will help you decide how hot, cold, wet, or windy it might be!

Date:

Astronomy

Feb. 18, 2013 Rise Set
Actual Time 7:08 AM PST 5:37 PM PST
Civil Twilight 6:37 AM PST 6:09 PM PST
Nautical Twilight 6:01 AM PST 6:44 PM PST
Astronomical Twilight 5:25 AM PST 7:20 PM PST
Moon 11:15 AM PST (2/18) 2:04 AM PST (2/18)
Length of Visible Light 11h 31m
Length of Day
10h 29m
First Quarter, 59% of the Moon is Illuminated
Feb 18
First Quarter
Feb 25
Full
Mar 4
Last Quarter
Mar 11
New
Mar 19
First Quarter

Hourly Weather History & Observations

Time (PST) Temp. Windchill Dew Point Humidity Pressure Visibility Wind Dir Wind Speed Gust Speed Precip Events Conditions
12:53 AM 42.1 °F - 37.0 °F 82% 30.12 in 10.0 mi Calm Calm - N/A   Overcast
1:53 AM 41.0 °F 39.0 °F 37.0 °F 86% 30.09 in 10.0 mi East 3.5 mph - N/A   Scattered Clouds
2:53 AM 39.9 °F - 37.0 °F 89% 30.08 in 10.0 mi Calm Calm - N/A   Partly Cloudy
3:53 AM 39.0 °F - 37.0 °F 93% 30.06 in 10.0 mi Calm Calm - N/A   Scattered Clouds
4:53 AM 39.0 °F - 36.0 °F 89% 30.04 in 10.0 mi Calm Calm - N/A   Scattered Clouds
5:53 AM 39.0 °F - 36.0 °F 89% 30.02 in 10.0 mi Calm Calm - N/A   Overcast
6:05 AM 39.2 °F - 35.6 °F 87% 30.01 in 10.0 mi Calm Calm - N/A   Overcast
6:18 AM 37.4 °F 34.9 °F 35.6 °F 93% 30.01 in 10.0 mi ESE 3.5 mph - N/A   Overcast
6:53 AM 39.0 °F 36.8 °F 36.0 °F 89% 30.02 in 10.0 mi East 3.5 mph - N/A   Overcast
7:19 AM 39.2 °F 37.0 °F 35.6 °F 87% 30.00 in 10.0 mi East 3.5 mph - N/A   Overcast
7:53 AM 39.0 °F - 36.0 °F 89% 30.02 in 10.0 mi Calm Calm - N/A   Overcast
8:14 AM 39.2 °F 37.0 °F 35.6 °F 87% 30.00 in 10.0 mi East 3.5 mph - N/A   Overcast
8:53 AM 39.9 °F 36.7 °F 37.0 °F 89% 30.01 in 10.0 mi East 4.6 mph - N/A   Overcast
9:16 AM 41.0 °F 37.1 °F 37.4 °F 87% 29.99 in 10.0 mi East 5.8 mph - N/A   Overcast
9:53 AM 42.1 °F 38.4 °F 37.0 °F 82% 29.99 in 10.0 mi ESE 5.8 mph - N/A   Partly Cloudy
10:31 AM 42.8 °F - 35.6 °F 76% 29.97 in 10.0 mi Calm Calm - N/A   Overcast
10:53 AM 44.1 °F 41.5 °F 36.0 °F 73% 29.99 in 10.0 mi South 4.6 mph - N/A   Overcast
11:05 AM 44.6 °F 43.1 °F 35.6 °F 71% 29.97 in 10.0 mi SSW 3.5 mph - N/A   Overcast
11:53 AM 44.1 °F 42.5 °F 35.1 °F 71% 29.97 in 10.0 mi South 3.5 mph - N/A   Overcast
12:53 PM 45.0 °F 42.6 °F 35.1 °F 68% 29.95 in 10.0 mi SSE 4.6 mph - N/A   Overcast
1:53 PM 46.0 °F 43.1 °F 34.0 °F 63% 29.93 in 10.0 mi SSW 5.8 mph - N/A   Overcast
2:53 PM 45.0 °F 38.9 °F 36.0 °F 71% 29.92 in 8.0 mi South 12.7 mph 20.7 mph 0.00 in Rain Light Rain
3:00 PM 42.8 °F - 37.4 °F 81% 29.90 in 8.0 mi Calm Calm - 0.02 in Rain Light Rain
3:53 PM 46.0 °F 43.9 °F 37.9 °F 73% 29.89 in 10.0 mi South 4.6 mph - 0.02 in   Overcast
4:53 PM 46.9 °F - 36.0 °F 66% 29.86 in 10.0 mi SE 4.6 mph - N/A   Overcast
5:53 PM 45.0 °F 43.5 °F 36.0 °F 71% 29.85 in 10.0 mi ESE 3.5 mph - N/A   Overcast
6:53 PM 44.1 °F - 37.0 °F 76% 29.84 in 10.0 mi Calm Calm - N/A   Overcast
7:53 PM 44.1 °F - 37.0 °F 76% 29.82 in 10.0 mi Calm Calm - N/A   Overcast
8:53 PM 42.1 °F - 37.0 °F 82% 29.81 in 10.0 mi Calm Calm - N/A   Overcast
9:53 PM 42.1 °F - 35.1 °F 76% 29.80 in 10.0 mi Calm Calm - N/A   Overcast
10:53 PM 39.9 °F - 36.0 °F 86% 29.79 in 10.0 mi Calm Calm - N/A   Overcast
11:53 PM 39.2 °F - 35.6 °F 87% 29.77 in 10.0 mi Calm Calm - N/A   Overcast